Time,TemperatureF,DewpointF,PressureIn,WindDirection,WindDirectionDegrees,WindSpeedMPH,WindSpeedGustMPH,Humidity,HourlyPrecipIn,Conditions,Clouds,dailyrainin,SolarRadiationWatts/m^2,SoftwareType,DateUTC
2013-06-23 00:14:00,70.9,63.0,30.13,North,355,0.0,2.0,77,0.00,,,0.00,0,weatherlink.com 1.10,2013-06-23 04:14:00,
2013-06-23 00:29:00,70.8,63.0,30.13,North,355,1.0,2.0,77,0.00,,,0.00,0,weatherlink.com 1.10,2013-06-23 04:29:00,
2013-06-23 00:44:00,70.7,63.0,30.14,NNW,342,0.0,2.0,76,0.00,,,0.00,0,weatherlink.com 1.10,2013-06-23 04:44:00,
2013-06-23 00:59:00,70.2,63.0,30.14,WSW,240,0.0,2.0,77,0.00,,,0.00,0,weatherlink.com 1.10,2013-06-23 04:59:00,
2013-06-23 01:14:00,69.6,62.0,30.13,WNW,298,0.0,1.0,77,0.00,,,0.00,0,weatherlink.com 1.10,2013-06-23 05:14:00,
2013-06-23 01:29:00,69.5,62.0,30.13,NW,317,0.0,2.0,77,0.00,,,0.00,0,weatherlink.com 1.10,2013-06-23 05:29:00,
2013-06-23 01:44:00,69.3,62.0,30.13,North,355,0.0,3.0,77,0.00,,,0.00,0,weatherlink.com 1.10,2013-06-23 05:44:00,
2013-06-23 01:59:00,69.2,61.0,30.12,WSW,248,0.0,2.0,76,0.00,,,0.00,0,weatherlink.com 1.10,2013-06-23 05:59:00,
2013-06-23 02:14:00,69.2,61.0,30.12,NNW,342,0.0,3.0,76,0.00,,,0.00,0,weatherlink.com 1.10,2013-06-23 06:14:00,
2013-06-23 02:29:00,68.8,61.0,30.11,NNW,342,2.0,2.0,77,0.00,,,0.00,0,weatherlink.com 1.10,2013-06-23 06:29:00,
2013-06-23 02:44:00,68.8,61.0,30.11,NNW,337,0.0,2.0,76,0.00,,,0.00,0,weatherlink.com 1.10,2013-06-23 06:44:00,
2013-06-23 02:59:00,68.3,61.0,30.11,NNW,337,0.0,2.0,78,0.00,,,0.00,0,weatherlink.com 1.10,2013-06-23 06:59:00,
2013-06-23 03:14:00,68.1,62.0,30.11,SSW,200,0.0,0.0,80,0.00,,,0.00,0,weatherlink.com 1.10,2013-06-23 07:14:00,
2013-06-23 03:29:00,67.9,62.0,30.11,WNW,300,0.0,1.0,81,0.00,,,0.00,0,weatherlink.com 1.10,2013-06-23 07:29:00,
2013-06-23 03:44:00,67.7,62.0,30.11,WNW,300,0.0,1.0,81,0.00,,,0.00,0,weatherlink.com 1.10,2013-06-23 07:44:00,
2013-06-23 03:59:00,67.9,62.0,30.11,WNW,300,0.0,1.0,81,0.00,,,0.00,0,weatherlink.com 1.10,2013-06-23 07:59:00,
2013-06-23 04:14:00,67.9,62.0,30.11,WNW,300,0.0,1.0,81,0.00,,,0.00,0,weatherlink.com 1.10,2013-06-23 08:14:00,
2013-06-23 04:29:00,68.0,62.0,30.11,SW,228,0.0,3.0,81,0.00,,,0.00,0,weatherlink.com 1.10,2013-06-23 08:29:00,
2013-06-23 04:44:00,67.9,62.0,30.11,West,269,0.0,2.0,81,0.00,,,0.00,0,weatherlink.com 1.10,2013-06-23 08:44:00,
2013-06-23 04:59:00,67.8,62.0,30.11,WNW,298,1.0,1.0,81,0.00,,,0.00,0,weatherlink.com 1.10,2013-06-23 08:59:00,
2013-06-23 05:13:00,67.8,62.0,30.11,WNW,298,0.0,2.0,82,0.00,,,0.00,0,weatherlink.com 1.10,2013-06-23 09:13:00,
2013-06-23 05:29:00,67.8,62.0,30.11,North,355,0.0,1.0,82,0.00,,,0.00,0,weatherlink.com 1.10,2013-06-23 09:29:00,
2013-06-23 05:44:00,67.9,62.0,30.12,North,355,0.0,1.0,82,0.00,,,0.00,0,weatherlink.com 1.10,2013-06-23 09:44:00,
2013-06-23 05:59:00,68.0,63.0,30.12,North,355,0.0,1.0,83,0.00,,,0.00,7,weatherlink.com 1.10,2013-06-23 09:59:00,
2013-06-23 06:14:00,68.2,63.0,30.12,North,355,0.0,2.0,84,0.00,,,0.00,18,weatherlink.com 1.10,2013-06-23 10:14:00,
2013-06-23 06:29:00,68.3,63.0,30.12,NW,313,1.0,2.0,84,0.00,,,0.00,28,weatherlink.com 1.10,2013-06-23 10:29:00,
2013-06-23 06:44:00,68.4,64.0,30.13,SE,143,0.0,3.0,85,0.00,,,0.00,37,weatherlink.com 1.10,2013-06-23 10:44:00,
2013-06-23 06:59:00,68.6,64.0,30.13,WNW,302,1.0,3.0,85,0.00,,,0.00,60,weatherlink.com 1.10,2013-06-23 10:59:00,
2013-06-23 07:14:00,69.0,64.0,30.13,NNW,330,1.0,3.0,85,0.00,,,0.00,76,weatherlink.com 1.10,2013-06-23 11:14:00,
2013-06-23 07:29:00,69.5,65.0,30.13,North,5,1.0,5.0,85,0.00,,,0.00,69,weatherlink.com 1.10,2013-06-23 11:29:00,
2013-06-23 07:44:00,70.0,65.0,30.14,WNW,301,2.0,4.0,85,0.00,,,0.00,76,weatherlink.com 1.10,2013-06-23 11:44:00,
2013-06-23 07:59:00,70.5,66.0,30.14,NNW,341,1.0,2.0,85,0.00,,,0.00,65,weatherlink.com 1.10,2013-06-23 11:59:00,
2013-06-23 08:15:00,71.0,66.0,30.14,NNW,331,0.0,4.0,84,0.00,,,0.00,88,weatherlink.com 1.10,2013-06-23 12:15:00,
2013-06-23 08:30:00,71.7,67.0,30.14,SW,227,0.0,3.0,84,0.00,,,0.00,120,weatherlink.com 1.10,2013-06-23 12:30:00,
2013-06-23 08:45:00,72.5,67.0,30.14,NW,325,2.0,3.0,82,0.00,,,0.00,137,weatherlink.com 1.10,2013-06-23 12:45:00,
2013-06-23 09:00:00,73.8,68.0,30.14,South,180,3.0,3.0,81,0.00,,,0.00,165,weatherlink.com 1.10,2013-06-23 13:00:00,
2013-06-23 09:14:00,74.1,68.0,30.14,WNW,292,0.0,5.0,80,0.00,,,0.00,158,weatherlink.com 1.10,2013-06-23 13:14:00,
2013-06-23 09:30:00,75.1,69.0,30.13,NW,319,0.0,3.0,80,0.00,,,0.00,167,weatherlink.com 1.10,2013-06-23 13:30:00,
2013-06-23 09:44:00,76.1,69.0,30.13,NNW,341,1.0,3.0,79,0.00,,,0.00,153,weatherlink.com 1.10,2013-06-23 13:44:00,
2013-06-23 10:00:00,76.2,69.0,30.12,North,5,0.0,1.0,79,0.00,,,0.00,151,weatherlink.com 1.10,2013-06-23 14:00:00,
2013-06-23 10:15:00,78.0,70.0,30.12,South,180,0.0,4.0,76,0.00,,,0.00,111,weatherlink.com 1.10,2013-06-23 14:15:00,
2013-06-23 10:30:00,78.8,70.0,30.11,WNW,286,2.0,4.0,75,0.00,,,0.00,104,weatherlink.com 1.10,2013-06-23 14:30:00,
2013-06-23 10:45:00,79.9,71.0,30.11,West,267,3.0,4.0,74,0.00,,,0.00,102,weatherlink.com 1.10,2013-06-23 14:45:00,
2013-06-23 11:00:00,80.5,71.0,30.11,South,178,1.0,4.0,73,0.00,,,0.00,109,weatherlink.com 1.10,2013-06-23 15:00:00,
2013-06-23 11:15:00,81.6,72.0,30.10,West,267,0.0,3.0,72,0.00,,,0.00,121,weatherlink.com 1.10,2013-06-23 15:15:00,
2013-06-23 11:46:00,83.2,72.0,30.10,SSW,194,2.0,4.0,68,0.00,,,0.00,844,weatherlink.com 1.10,2013-06-23 15:46:00,
2013-06-23 12:00:00,83.8,72.0,30.09,WSW,252,2.0,6.0,67,0.00,,,0.00,868,weatherlink.com 1.10,2013-06-23 16:00:00,
2013-06-23 12:15:00,84.0,72.0,30.09,North,350,1.0,5.0,67,0.00,,,0.00,881,weatherlink.com 1.10,2013-06-23 16:15:00,
2013-06-23 12:30:00,84.9,72.0,30.09,ENE,76,2.0,4.0,66,0.00,,,0.00,884,weatherlink.com 1.10,2013-06-23 16:30:00,
2013-06-23 12:45:00,85.5,72.0,30.08,NNW,340,0.0,6.0,65,0.00,,,0.00,902,weatherlink.com 1.10,2013-06-23 16:45:00,
2013-06-23 13:15:00,86.9,74.0,30.07,WNW,290,1.0,5.0,65,0.00,,,0.00,911,weatherlink.com 1.10,2013-06-23 17:15:00,
2013-06-23 13:30:00,88.1,74.0,30.06,North,349,2.0,3.0,64,0.00,,,0.00,912,weatherlink.com 1.10,2013-06-23 17:30:00,
2013-06-23 13:46:00,88.7,75.0,30.05,NNW,339,4.0,5.0,64,0.00,,,0.00,886,weatherlink.com 1.10,2013-06-23 17:46:00,
2013-06-23 14:01:00,87.9,75.0,30.05,NNW,347,0.0,3.0,65,0.00,,,0.00,898,weatherlink.com 1.10,2013-06-23 18:01:00,
2013-06-23 14:16:00,88.4,74.0,30.04,SSE,155,4.0,4.0,63,0.00,,,0.00,299,weatherlink.com 1.10,2013-06-23 18:16:00,
2013-06-23 14:31:00,88.1,73.0,30.03,NNW,342,1.0,5.0,61,0.00,,,0.00,893,weatherlink.com 1.10,2013-06-23 18:31:00,
2013-06-23 14:46:00,89.5,73.0,30.02,NW,310,0.0,5.0,59,0.00,,,0.00,854,weatherlink.com 1.10,2013-06-23 18:46:00,
2013-06-23 15:00:00,90.2,74.0,30.02,NW,324,2.0,4.0,59,0.00,,,0.00,842,weatherlink.com 1.10,2013-06-23 19:00:00,
2013-06-23 15:16:00,90.6,72.0,30.02,NNW,332,0.0,5.0,55,0.00,,,0.00,837,weatherlink.com 1.10,2013-06-23 19:16:00,
2013-06-23 15:31:00,90.1,71.0,30.01,NW,304,2.0,5.0,54,0.00,,,0.00,814,weatherlink.com 1.10,2013-06-23 19:31:00,
2013-06-23 15:46:00,90.8,72.0,30.01,NW,315,0.0,4.0,55,0.00,,,0.00,768,weatherlink.com 1.10,2013-06-23 19:46:00,
2013-06-23 16:01:00,90.4,70.0,30.01,NW,325,2.0,4.0,51,0.00,,,0.00,722,weatherlink.com 1.10,2013-06-23 20:01:00,
2013-06-23 16:16:00,90.4,70.0,30.00,SE,134,3.0,5.0,51,0.00,,,0.00,686,weatherlink.com 1.10,2013-06-23 20:16:00,
2013-06-23 16:31:00,90.3,71.0,30.00,South,169,0.0,4.0,53,0.00,,,0.00,649,weatherlink.com 1.10,2013-06-23 20:31:00,
2013-06-23 16:46:00,90.3,70.0,30.00,ESE,121,3.0,4.0,52,0.00,,,0.00,610,weatherlink.com 1.10,2013-06-23 20:46:00,
2013-06-23 17:01:00,90.0,69.0,30.00,South,171,2.0,4.0,50,0.00,,,0.00,571,weatherlink.com 1.10,2013-06-23 21:01:00,
2013-06-23 17:16:00,89.4,69.0,30.00,NNW,344,5.0,7.0,51,0.00,,,0.00,536,weatherlink.com 1.10,2013-06-23 21:16:00,
2013-06-23 17:31:00,89.4,67.0,30.00,SW,228,1.0,4.0,48,0.00,,,0.00,480,weatherlink.com 1.10,2013-06-23 21:31:00,
2013-06-23 17:46:00,88.4,67.0,30.00,NNW,331,1.0,6.0,49,0.00,,,0.00,439,weatherlink.com 1.10,2013-06-23 21:46:00,
2013-06-23 18:01:00,88.4,66.0,30.00,South,184,1.0,5.0,47,0.00,,,0.00,394,weatherlink.com 1.10,2013-06-23 22:01:00,
2013-06-23 18:16:00,88.0,65.0,29.99,NW,315,4.0,5.0,47,0.00,,,0.00,327,weatherlink.com 1.10,2013-06-23 22:16:00,
2013-06-23 18:31:00,87.4,68.0,29.99,SW,231,0.0,4.0,52,0.00,,,0.00,279,weatherlink.com 1.10,2013-06-23 22:31:00,
2013-06-23 18:46:00,86.5,67.0,30.00,NNW,336,1.0,4.0,52,0.00,,,0.00,193,weatherlink.com 1.10,2013-06-23 22:46:00,
2013-06-23 19:01:00,85.3,67.0,30.00,NNW,333,0.0,3.0,55,0.00,,,0.00,151,weatherlink.com 1.10,2013-06-23 23:01:00,
2013-06-23 19:16:00,84.6,68.0,30.00,WNW,293,1.0,3.0,57,0.00,,,0.00,134,weatherlink.com 1.10,2013-06-23 23:16:00,
2013-06-23 19:31:00,84.1,68.0,30.00,NNW,342,1.0,5.0,58,0.00,,,0.00,88,weatherlink.com 1.10,2013-06-23 23:31:00,
2013-06-23 19:46:00,82.8,68.0,30.00,WNW,294,1.0,3.0,61,0.00,,,0.00,28,weatherlink.com 1.10,2013-06-23 23:46:00,
2013-06-23 20:01:00,81.5,69.0,30.00,SSE,150,0.0,2.0,65,0.00,,,0.00,18,weatherlink.com 1.10,2013-06-24 00:01:00,
2013-06-23 20:16:00,81.3,68.0,30.01,SSE,157,1.0,4.0,64,0.00,,,0.00,9,weatherlink.com 1.10,2013-06-24 00:16:00,
2013-06-23 20:31:00,80.0,68.0,30.01,South,178,0.0,1.0,67,0.00,,,0.00,0,weatherlink.com 1.10,2013-06-24 00:31:00,
2013-06-23 20:46:00,79.4,68.0,30.01,SW,228,0.0,3.0,68,0.00,,,0.00,0,weatherlink.com 1.10,2013-06-24 00:46:00,
2013-06-23 21:01:00,79.0,68.0,30.01,NNW,327,0.0,2.0,69,0.00,,,0.00,0,weatherlink.com 1.10,2013-06-24 01:01:00,
2013-06-23 21:16:00,78.4,68.0,30.02,SSE,155,0.0,3.0,71,0.00,,,0.00,0,weatherlink.com 1.10,2013-06-24 01:16:00,
2013-06-23 21:31:00,78.3,69.0,30.02,WSW,240,0.0,1.0,73,0.00,,,0.00,0,weatherlink.com 1.10,2013-06-24 01:31:00,
2013-06-23 21:46:00,77.6,69.0,30.03,WSW,246,0.0,2.0,75,0.00,,,0.00,0,weatherlink.com 1.10,2013-06-24 01:46:00,
2013-06-23 22:01:00,77.3,70.0,30.04,NW,315,0.0,2.0,77,0.00,,,0.00,0,weatherlink.com 1.10,2013-06-24 02:01:00,
2013-06-23 22:16:00,76.9,70.0,30.04,NW,315,0.0,0.0,79,0.00,,,0.00,0,weatherlink.com 1.10,2013-06-24 02:16:00,
2013-06-23 22:31:00,76.3,70.0,30.04,NW,315,0.0,1.0,80,0.00,,,0.00,0,weatherlink.com 1.10,2013-06-24 02:31:00,
2013-06-23 22:46:00,75.6,69.0,30.04,NW,315,0.0,1.0,81,0.00,,,0.00,0,weatherlink.com 1.10,2013-06-24 02:46:00,
2013-06-23 23:01:00,75.1,70.0,30.04,NW,315,0.0,1.0,83,0.00,,,0.00,0,weatherlink.com 1.10,2013-06-24 03:01:00,
2013-06-23 23:16:00,74.7,70.0,30.04,NW,315,0.0,1.0,84,0.00,,,0.00,0,weatherlink.com 1.10,2013-06-24 03:16:00,
2013-06-23 23:46:00,73.9,69.0,30.04,NW,315,0.0,1.0,85,0.00,,,0.00,0,weatherlink.com 1.10,2013-06-24 03:46:00,